星链-37106(STARLINK-37106)

导读

STARLINK-37106(NORAD编号68219)是美国SpaceX公司星链(Starlink)星座中的一颗卫星。星链星座旨在通过近地轨道卫星群提供全球宽带互联网接入,该卫星配备先进通信天线与氩气离子推进系统,依靠太阳能供电,可实现轨道机动与脱轨处置。2025年12月,该卫星出现异常,轨道高度骤降约4000米,疑似发生爆炸,产生数十块碎片后与地面失联。SpaceX监测显示,卫星大致保持完整但处于翻滚状态,预计会在几周内再入大气层烧毁,目前相关方正持续监测碎片轨迹。

Basic Information
目录编号:
68219
目录名称:
STARLINK-37106
国际标识:
2026-053N
轨道中心:
EARTH
卫星名称:
星链-37106
卫星全名:
星链-37106(STARLINK-37106)
卫星状态:
在轨 (已飞行180 天)
发射日期:
2026-03-17 UTC
国别 :
美国 (US)
星等 :
--
This satellite is enrolled in the Space Conjunction Data Service (SCDS) and the current flight risk assessment level is: No High Risk
Orbit Information
数据来源 国际轨道数据
星历时间: 2026-09-12T22:34:22+0800
20小时前
查看轨道信息
半长轴: 6843.654km
偏心率: 0.0001767
轨道倾角: 97.284°
近地点辐角 85.715°
升交点赤经 129.495°
平近点角 274.430°
近地点: 464.307km
远地点: 466.727km
周期: 93.906分钟
每日圈数: 15.33454
Detailed Information
固有亮度:
5
最大亮度:
2.5
卫星平台:
Starlink V1.0
覆盖范围:
全球
运营商:
太空探索技术公司
运营商所在国:
美国
制造商(研发单位):
太空探索技术公司
制造商所在国:
美国
使用方式:
暂无
Satellite Introduction
Starlink 计划是 SpaceX 推出的全球卫星互联网项目,通过发射低轨道卫星,为全球尤其是偏远地区提供高速、低延迟的互联网服务。自 2019 年起,Starlink 已部署数千颗卫星,旨在缩小全球数字鸿沟,推动互联网普及。该项目还为军事、航空等行业提供通信支持,带来广泛经济效益。
2D Orbit Map
3D Orbit Map
Orbit Altitude Analysis Chart
Orbit Inclination Analysis Chart
Orbit Comprehensive Analysis Chart
View Comprehensive Chart
Conjunction Data List
Event ID Objects TCA Miss Dist (km) Collision Risk Probability Collision Risk Index (CRI) Action
CDM_260914-022804-857506-821921
2026-09-14T
02:28:08+0000
0.735 km
远距离
7.33591E-5 中风险 0.72
CDM_260915-025704-857806-821921
2026-09-15T
02:57:13+0000
2.661 km
极远距离
1.572379E-6 低风险 0.39
CDM_260913-102206-534706-821921
2026-09-13T
10:22:20+0000
2.932 km
极远距离
1.114518E-6 低风险 0.36
Miss Distance Evolution Trend with All Objects
Collision Probability Evolution Trend with All Objects